EW6741 Milford CT US current weather conditions

sailwx.info

Wind from 194 at 2 knots gusting 10

Air temperature 30.6° C
Dewpoint 20.2° C

Last reported at 2020-Aug-03 17:59 UTC.
Time now 2020-Aug-03 18:17 UTC

Location: N 41°12' W 073°02'.
View on Google Maps.

See reports from other nearby stations

  
Tides and Currents Weather Stations Pressure Air Temp Water Temp Dewpoint Dewpoint Depression Visibility Wind Speed Wind Dir Waves Ship Positions
date/time (UTC)wind fromknots sea level pressurealtimeterstation pressurevisibilityair tempwater tempwave heightnotes
2020-Aug-03 17:59 194 2 gusting 10 30.6
2020-Aug-03 17:49 181 30.6
2020-Aug-03 17:39 100 1 gusting 6 30.6
2020-Aug-03 17:29 240 1 gusting 8 30.6
2020-Aug-03 17:19 188 0 gusting 7 30.6
2020-Aug-03 17:08 357 1 gusting 8 30.0
2020-Aug-03 16:58 229 3 gusting 7 30.0
2020-Aug-03 16:48 171 6 gusting 10 29.4
2020-Aug-03 16:38 216 1 gusting 7 29.4
2020-Aug-03 16:28 198 0 gusting 7 29.4
2020-Aug-03 16:18 175 2 gusting 8 28.9
2020-Aug-03 16:08 218 0 gusting 10 28.9
2020-Aug-03 15:58 246 4 gusting 12 28.3
2020-Aug-03 15:48 203 0 gusting 6 28.3
2020-Aug-03 15:38 174 0 gusting 7 28.3
2020-Aug-03 15:27 281 2 gusting 6 28.3
2020-Aug-03 15:17 190 2 gusting 8 28.3
2020-Aug-03 15:07 224 1 gusting 6 28.3
2020-Aug-03 14:57 174 0 gusting 7 28.3
2020-Aug-03 14:47 194 2 gusting 6 28.3
2020-Aug-03 14:37 180 3 gusting 7 28.3
2020-Aug-03 14:27 191 1 gusting 4 28.3
2020-Aug-03 14:17 182 1 gusting 10 28.3
2020-Aug-03 14:06 232 6 gusting 8 28.9
2020-Aug-03 13:56 191 2 gusting 6 29.4
2020-Aug-03 13:46 226 0 gusting 6 28.9
2020-Aug-03 13:36 195 1 gusting 6 28.9
2020-Aug-03 13:26 282 1 gusting 7 28.3
2020-Aug-03 13:16 197 0 gusting 6 27.8
2020-Aug-03 12:56 354 1 gusting 8 27.2
2020-Aug-03 12:46 192 0 gusting 6 27.8
2020-Aug-03 12:35 186 0 gusting 7 27.2
2020-Aug-03 12:25 324 2 gusting 7 26.7
2020-Aug-03 12:15 313 4 gusting 6 26.7
2020-Aug-03 12:05 334 2 gusting 7 26.7
2020-Aug-03 11:55 317 2 gusting 10 26.7
2020-Aug-03 11:45 268 1 gusting 8 26.7
2020-Aug-03 11:35 228 0 gusting 2 26.1
2020-Aug-03 11:25 231 1 gusting 4 26.7
2020-Aug-03 11:15 312 0 gusting 4 26.1
2020-Aug-03 11:05 132 0 gusting 6 26.1
2020-Aug-03 10:55 125 0 gusting 6 25.6
2020-Aug-03 10:44 295 1 gusting 4 25.6
2020-Aug-03 10:34 220 0 gusting 2 25.0
2020-Aug-03 10:24 036 25.6
2020-Aug-03 10:14 204 25.6
2020-Aug-03 10:04 328 1 gusting 7 26.1
2020-Aug-03 09:54 290 2 gusting 10 25.6
2020-Aug-03 09:44 203 25.0
2020-Aug-03 09:34 252 25.0
2020-Aug-03 09:24 232 25.6
2020-Aug-03 09:14 158 25.6
2020-Aug-03 09:04 204 25.6
2020-Aug-03 08:53 217 0 gusting 6 25.6
2020-Aug-03 08:43 236 0 gusting 4 25.6
2020-Aug-03 08:33 223 25.6
2020-Aug-03 08:23 205 25.6
2020-Aug-03 08:13 197 26.1
2020-Aug-03 08:03 241 0 gusting 8 26.1
2020-Aug-03 07:53 291 0 gusting 6 26.1
2020-Aug-03 07:43 257 2 gusting 7 26.1
2020-Aug-03 07:33 347 3 gusting 13 26.1
2020-Aug-03 07:23 155 1 gusting 7 26.1
2020-Aug-03 07:13 201 0 gusting 6 25.6
2020-Aug-03 07:02 321 1 gusting 4 25.6
2020-Aug-03 06:52 195 25.6
2020-Aug-03 06:42 317 1 gusting 2 25.6
2020-Aug-03 06:32 232 25.6
2020-Aug-03 06:22 246 25.6
2020-Aug-03 06:12 237 25.6
2020-Aug-03 06:02 206 0 gusting 1 25.6
2020-Aug-03 05:52 231 25.6
2020-Aug-03 05:42 234 0 gusting 6 25.6
2020-Aug-03 05:32 203 0 gusting 2 25.6
2020-Aug-03 05:22 215 25.6
2020-Aug-03 05:11 198 0 gusting 7 26.1
2020-Aug-03 05:01 027 26.1
2020-Aug-03 04:51 207 0 gusting 4 25.6
2020-Aug-03 04:41 188 26.1
2020-Aug-03 04:31 182 0 gusting 4 26.1
2020-Aug-03 04:21 219 1 gusting 4 26.1
2020-Aug-03 04:11 190 1 gusting 4 26.1
2020-Aug-03 04:01 193 25.6
2020-Aug-03 03:51 188 2 gusting 7 26.1
2020-Aug-03 03:41 174 0 gusting 7 26.1
2020-Aug-03 03:31 216 0 gusting 2 26.1
2020-Aug-03 03:21 178 1 gusting 4 26.1
2020-Aug-03 03:10 194 26.1
2020-Aug-03 03:00 176 1 gusting 6 26.1
2020-Aug-03 02:50 203 0 gusting 8 26.1
2020-Aug-03 02:40 208 4 gusting 8 26.1
2020-Aug-03 02:30 183 1 gusting 4 25.6
2020-Aug-03 02:20 211 25.6
2020-Aug-03 02:10 231 0 gusting 4 25.6
2020-Aug-03 02:00 256 25.6
2020-Aug-03 01:50 281 1 gusting 4 25.6
2020-Aug-03 01:40 276 1 gusting 6 25.6
2020-Aug-03 01:30 320 0 gusting 4 25.6
2020-Aug-03 01:19 331 0 gusting 4 25.6
2020-Aug-03 01:09 287 1 gusting 2 25.6
2020-Aug-03 00:59 192 26.1
2020-Aug-03 00:49 178 1 gusting 7 26.1
2020-Aug-03 00:39 157 0 gusting 8 26.1
2020-Aug-03 00:29 194 4 gusting 8 26.1
2020-Aug-03 00:19 196 4 gusting 10 26.1
2020-Aug-03 00:09 164 4 gusting 8 26.1
2020-Aug-02 23:59 202 4 gusting 6 26.1
2020-Aug-02 23:49 215 0 gusting 4 26.1
2020-Aug-02 23:38 198 2 gusting 2 26.7
2020-Aug-02 23:28 190 26.7
2020-Aug-02 23:18 196 1 gusting 4 26.7
2020-Aug-02 23:08 195 0 gusting 4 26.7
2020-Aug-02 22:58 184 1 gusting 4 26.7
2020-Aug-02 22:48 180 2 gusting 2 26.7
2020-Aug-02 22:38 184 2 gusting 4 26.7
2020-Aug-02 22:28 183 1 gusting 4 26.7
2020-Aug-02 22:18 184 4 gusting 6 26.7
2020-Aug-02 22:07 180 1 gusting 4 26.7
2020-Aug-02 21:57 175 1 gusting 4 26.7
2020-Aug-02 21:47 183 1 gusting 4 26.7
2020-Aug-02 21:37 180 0 gusting 6 26.7
2020-Aug-02 21:27 158 1 gusting 6 26.7
2020-Aug-02 21:17 173 4 gusting 7 26.7
2020-Aug-02 21:07 197 5 gusting 7 26.7
2020-Aug-02 20:57 178 6 gusting 7 26.7
2020-Aug-02 20:47 170 5 gusting 8 26.7
2020-Aug-02 20:37 161 6 gusting 8 26.7
2020-Aug-02 20:27 178 6 gusting 10 26.7
2020-Aug-02 20:16 196 6 gusting 8 26.7
2020-Aug-02 20:06 180 5 gusting 7 26.7
2020-Aug-02 19:56 165 3 gusting 8 26.1
2020-Aug-02 19:46 152 7 gusting 8 26.1
2020-Aug-02 19:36 162 3 gusting 8 26.7
2020-Aug-02 19:26 164 4 gusting 10 26.7
2020-Aug-02 19:16 164 4 gusting 10 26.7
2020-Aug-02 19:06 174 6 gusting 10 26.1
2020-Aug-02 18:55 176 6 gusting 12 26.1
2020-Aug-02 18:45 177 6 gusting 12 26.1
2020-Aug-02 18:35 183 4 gusting 12 25.6
2020-Aug-02 18:25 168 6 gusting 16 25.6
2020-Aug-02 18:15 191 7 gusting 14 25.6
2020-Aug-02 18:05 181 9 gusting 16 25.6
2020-Aug-02 17:55 184 6 gusting 14 25.6
2020-Aug-02 17:45 176 8 gusting 14 25.6
2020-Aug-02 17:35 152 8 gusting 16 25.6
2020-Aug-02 17:25 162 7 gusting 16 26.1
2020-Aug-02 17:14 144 11 gusting 16 26.1
2020-Aug-02 17:04 213 9 gusting 14 26.7
2020-Aug-02 16:54 176 8 gusting 13 26.1
2020-Aug-02 16:44 188 9 gusting 13 26.1
2020-Aug-02 16:34 165 9 gusting 14 26.1
2020-Aug-02 16:24 149 6 gusting 12 26.1
2020-Aug-02 16:14 156 5 gusting 10 26.1
2020-Aug-02 16:04 134 5 gusting 8 26.1
2020-Aug-02 15:54 181 3 gusting 8 26.1
2020-Aug-02 15:44 149 4 gusting 8 26.1
2020-Aug-02 15:34 179 6 gusting 8 26.1
2020-Aug-02 15:23 182 6 gusting 7 26.1
2020-Aug-02 15:13 180 6 gusting 8 26.1
2020-Aug-02 15:04 148 5 gusting 8 26.1
2020-Aug-02 14:53 165 3 gusting 7 26.1
2020-Aug-02 14:43 156 3 gusting 8 26.1
2020-Aug-02 14:33 172 4 gusting 7 26.1
2020-Aug-02 14:23 180 4 gusting 7 26.7
2020-Aug-02 14:13 166 5 gusting 10 26.1
2020-Aug-02 14:03 190 4 gusting 7 26.1
2020-Aug-02 13:53 133 3 gusting 7 26.1
2020-Aug-02 13:42 154 4 gusting 7 26.1
2020-Aug-02 13:32 169 4 gusting 10 26.1
2020-Aug-02 13:22 168 3 gusting 8 25.6
2020-Aug-02 13:12 162 3 gusting 7 26.1
2020-Aug-02 13:02 156 5 gusting 10 26.1
2020-Aug-02 12:52 137 5 gusting 7 25.6
2020-Aug-02 12:42 184 2 gusting 7 25.6
2020-Aug-02 12:32 180 2 gusting 7 25.6
2020-Aug-02 12:22 150 2 gusting 7 25.6
2020-Aug-02 12:11 161 5 gusting 8 24.4
2020-Aug-02 12:01 152 4 gusting 8 24.4
2020-Aug-02 11:51 157 3 gusting 10 24.4
2020-Aug-02 11:41 171 4 gusting 7 24.4
2020-Aug-02 11:31 170 5 gusting 7 25.0
2020-Aug-02 11:21 152 3 gusting 7 24.4
2020-Aug-02 11:11 179 3 gusting 8 24.4
2020-Aug-02 11:01 167 3 gusting 7 24.4
2020-Aug-02 10:51 194 5 gusting 7 24.4
2020-Aug-02 10:41 199 5 gusting 8 24.4
2020-Aug-02 10:31 159 3 gusting 10 24.4
2020-Aug-02 10:21 168 4 gusting 8 24.4
2020-Aug-02 10:10 179 3 gusting 10 24.4
2020-Aug-02 10:00 166 6 gusting 8 24.4
2020-Aug-02 09:50 172 4 gusting 8 24.4
2020-Aug-02 09:40 190 5 gusting 8 24.4
2020-Aug-02 09:30 178 5 gusting 7 24.4
2020-Aug-02 09:20 169 5 gusting 8 24.4
2020-Aug-02 09:10 148 2 gusting 6 24.4
2020-Aug-02 09:00 171 3 gusting 6 24.4
2020-Aug-02 08:50 173 1 gusting 4 24.4
2020-Aug-02 08:40 173 1 gusting 6 24.4
2020-Aug-02 08:30 169 3 gusting 4 24.4
2020-Aug-02 08:19 181 0 gusting 2 24.4
2020-Aug-02 08:09 172 24.4
2020-Aug-02 07:59 166 0 gusting 2 24.4
2020-Aug-02 07:49 169 0 gusting 2 24.4
2020-Aug-02 07:39 172 24.4
2020-Aug-02 07:29 177 1 gusting 1 24.4
2020-Aug-02 07:19 182 0 gusting 1 24.4
2020-Aug-02 07:09 174 24.4
2020-Aug-02 06:59 203 24.4
2020-Aug-02 06:49 203 24.4
2020-Aug-02 06:39 203 24.4
2020-Aug-02 06:28 203 24.4
2020-Aug-02 06:18 204 24.4
2020-Aug-02 06:08 203 24.4
2020-Aug-02 05:58 204 24.4
2020-Aug-02 05:48 203 24.4
2020-Aug-02 05:38 203 24.4
2020-Aug-02 05:28 201 0 gusting 1 23.9
2020-Aug-02 05:18 198 23.9
2020-Aug-02 05:08 218 23.9
2020-Aug-02 04:58 218 23.9
2020-Aug-02 04:48 218 23.9
2020-Aug-02 04:38 218 23.9
2020-Aug-02 04:27 218 24.4
2020-Aug-02 04:17 218 24.4
2020-Aug-02 04:07 213 24.4
2020-Aug-02 03:57 209 24.4
2020-Aug-02 03:47 209 24.4
2020-Aug-02 03:37 205 24.4
2020-Aug-02 03:27 188 0 gusting 1 24.4
2020-Aug-02 03:17 189 25.0
2020-Aug-02 03:07 215 0 gusting 2 25.0
2020-Aug-02 02:56 201 0 gusting 2 25.0
2020-Aug-02 02:46 217 0 gusting 2 25.0
2020-Aug-02 02:36 215 25.0
2020-Aug-02 02:26 235 25.0
2020-Aug-02 02:16 225 0 gusting 2 25.0
2020-Aug-02 02:06 195 25.0
2020-Aug-02 01:56 215 25.6
2020-Aug-02 01:46 208 25.6
2020-Aug-02 01:35 190 25.6
2020-Aug-02 01:25 216 0 gusting 2 25.6
2020-Aug-02 01:05 209 25.6
2020-Aug-02 00:55 201 1 gusting 6 25.6
2020-Aug-02 00:45 185 26.1
2020-Aug-02 00:35 166 0 gusting 2 26.1
2020-Aug-02 00:25 186 1 gusting 4 26.1
2020-Aug-02 00:15 203 26.7
2020-Aug-02 00:05 186 1 gusting 4 26.7
2020-Aug-01 23:55 207 0 gusting 4 26.7
2020-Aug-01 23:44 180 3 gusting 7 26.7
2020-Aug-01 23:34 185 0 gusting 4 26.7
2020-Aug-01 23:24 169 1 gusting 2 26.7
2020-Aug-01 23:14 203 27.2
2020-Aug-01 23:04 184 0 gusting 2 27.8
2020-Aug-01 22:54 193 0 gusting 4 27.8
2020-Aug-01 22:44 188 27.8
2020-Aug-01 22:34 216 0 gusting 4 27.8
2020-Aug-01 22:24 177 0 gusting 2 27.8
2020-Aug-01 22:13 197 0 gusting 6 28.3
2020-Aug-01 22:03 183 2 gusting 7 28.9
2020-Aug-01 21:53 184 1 gusting 4 28.3
2020-Aug-01 21:43 226 28.3
2020-Aug-01 21:33 202 1 gusting 6 28.3
2020-Aug-01 21:23 211 28.3
2020-Aug-01 21:13 187 2 gusting 6 28.3
2020-Aug-01 21:03 205 4 gusting 6 28.9
2020-Aug-01 20:53 188 1 gusting 6 28.9
2020-Aug-01 20:43 210 0 gusting 6 29.4
2020-Aug-01 20:32 163 2 gusting 6 28.9
2020-Aug-01 20:22 211 3 gusting 7 28.9
2020-Aug-01 20:12 142 4 gusting 7 28.9
2020-Aug-01 20:02 185 2 gusting 6 28.9
2020-Aug-01 19:52 186 2 gusting 6 28.9
2020-Aug-01 19:42 184 3 gusting 6 28.9
2020-Aug-01 19:32 175 3 gusting 7 28.3
2020-Aug-01 19:22 167 2 gusting 7 28.3
2020-Aug-01 19:12 192 2 gusting 8 28.3
2020-Aug-01 19:02 141 3 gusting 7 28.9
2020-Aug-01 18:52 160 3 gusting 7 28.9
2020-Aug-01 18:42 159 1 gusting 7 28.9
2020-Aug-01 18:32 191 2 gusting 6 28.3
2020-Aug-01 18:21 231 2 gusting 6 28.3
2020-Aug-01 18:11 203 4 gusting 8 28.3
2020-Aug-01 18:01 219 3 gusting 7 28.3